GFSWCAN_prec_radar_024.txt.gz
Reflectivity
-3 -20 -20 -20 -20 -20 -20 -20 -20 -20 -20 -20 -20 -20 4 -20 -20 -20 -20 -20 -20 -13 -20 -20 -20 -20 -20 -20 -2 -20 -20 -20 -20 -10 -20 -20 -20 -20 -20 -20 -20 -20 -20 -18 -20 -14 -16 -20 -20 -2 -11 -20 -20 -20
-9 -13 -20 -20 -20 -20 -20 -20 -20 -20 -20 -20 -20 -20 -20 -20 -20 -20 -20 -20 -20 -20 -20 -20 -20 -20 -20 -20 -20 -20 -20 -20 -20 -19 8 -20 -20 6 -20 -20 -20 -20 -20 -20 -20 -20 -20 18 12 -20 -20 -20 -11 -20
13 -7 -20 -20 -20 -20 -20 -20 -20 -20 -20 -20 -20 -20 -20 -20 -20 -20 -20 -20 -20 -16 -20 -20 -20 -20 -20 -20 -20 -20 -20 -20 -20 -20 -20 -9 -3 -20 -20 -20 -20 -20 -20 -20 -19 -20 -20 -20 -20 -20 -20 -20 -20 -2
28 10 -4 -1 -20 -20 -20 -20 -20 -20 -20 -9 7 5 -10 -20 -20 -20 -20 -20 -20 -20 17 -20 -20 -20 -20 -20 -20 -20 -20 -20 -20 -20 4 12 -18 -20 -20 -20 -20 -20 -20 -20 -20 -20 -20 15 -9 -20 -20 -20 -20 -20
36 26 20 11 7 6 -19 -20 -20 -20 9 9 9 7 0 -20 -20 -20 -20 -20 -20 -20 -10 -20 -20 -20 -20 -20 -20 -20 -20 -20 -20 -19 6 -1 -20 -20 -20 -20 -20 -15 -20 -20 -19 -1 -20 -20 -20 -20 -20 -20 -20 -20
30 20 24 19 -4 -6 -19 -20 -20 8 11 11 8 5 11 -20 -20 -20 -20 -20 -20 -20 -15 7 -20 -20 -20 -20 -20 -20 -20 -20 -1 8 -4 -20 -20 1 9 -20 -18 -20 -20 -20 -20 -20 -20 -20 -20 -20 -20 -20 -20 -20
24 33 30 24 11 -0 -18 3 -10 4 8 11 7 -4 -1 -20 -20 -20 -4 -20 -20 -20 3 3 -18 -20 -20 -20 -20 -2 -20 -20 -6 10 2 -20 -3 2 13 -20 -17 -20 -20 -20 -20 -20 -20 -20 -20 -20 -20 -20 -20 -20
16 8 16 22 22 17 -10 -20 -20 -20 -5 3 -5 -20 -20 -17 4 -14 -20 -20 -20 -20 -20 -14 -6 -20 -20 -20 -18 -20 -16 -20 -20 7 -10 -20 -10 -10 -20 -19 -20 -20 -20 -20 -20 -20 -20 -20 -20 -20 -20 -20 -20 -20
-18 3 11 1 9 7 19 1 -20 -20 -20 -11 -11 -8 -20 -1 -18 -9 -20 -20 -20 -18 -6 12 -15 -20 -20 -20 -20 -20 -20 7 -20 9 -11 -19 -20 -20 -20 -20 -20 -20 -20 -20 -20 -20 -20 -20 -20 -20 -20 -20 -20 -20
-20 -20 -20 -10 -20 -16 -20 -20 -20 2 18 1 -8 -16 9 -7 -17 -19 6 -20 -13 -19 -17 6 -19 0 -18 -9 -8 -2 -19 8 -4 -20 -20 -20 -20 -20 -20 -20 -20 -20 -20 -20 -20 -20 -20 -20 -20 -20 -20 -20 -20 -20
-20 -20 -20 -20 -20 -20 -20 -20 -14 -9 24 28 26 10 0 23 -10 -17 -10 -15 -20 2 -18 -12 -5 -20 -20 -14 -17 -19 -1 -5 -9 -20 -12 -8 -6 -20 -20 -20 -19 -20 -18 -12 -20 -20 -20 -20 -20 -20 -20 -20 -20 -20
-20 -20 -20 -20 -20 -20 -16 5 11 -9 -12 21 27 25 20 15 29 34 31 18 -13 -20 -20 -20 -20 -20 -20 -20 -20 -20 -18 -19 -11 -20 10 -1 -20 -20 -20 -20 -20 -20 -20 -20 -20 -20 -20 -20 -20 -20 -20 -20 -20 -20
-20 -20 -20 -20 -20 -20 -20 -10 -1 14 19 11 27 34 35 29 29 25 12 4 10 5 3 -6 -16 -20 -20 -20 -7 6 -10 10 19 2 -20 -15 9 -20 -20 -20 -20 -20 -20 -20 -20 -20 -20 -20 -20 -20 -20 -20 -20 -20
-20 -20 -20 -20 -20 -20 -19 -20 11 5 4 17 28 23 26 22 29 27 23 18 19 1 -12 -14 -7 -11 10 11 27 20 28 13 5 9 -9 12 -8 -11 -20 -20 -20 -20 -20 -20 -20 -20 -20 -20 -20 -20 -20 -20 -20 -20
-20 -20 -20 -20 -20 -20 -20 -19 -20 -20 -7 0 13 13 17 24 26 21 19 19 5 9 21 23 23 22 24 9 27 19 12 13 8 22 32 17 -8 -4 -14 -20 -20 -20 -20 -20 -20 -20 -20 -20 -20 -20 -20 -20 -20 -20
-20 -20 -5 -18 -12 -20 -20 -11 -18 -20 -20 -18 -20 -0 8 16 25 30 34 31 27 30 29 27 29 25 15 24 10 11 14 12 33 22 7 -8 -18 -14 -9 -12 -20 -20 -20 -20 -20 -20 -20 -20 -20 -20 -20 -20 -20 -20
-20 -0 3 -11 -17 -20 -20 -20 -11 -1 -20 -20 -19 3 -19 -15 -7 10 8 3 8 15 25 27 14 16 16 11 8 19 18 17 12 -1 -0 4 2 -14 -20 -20 -20 -20 -20 -20 -20 -20 -20 -20 -20 -20 -20 -20 -20 -20
-15 11 -1 -18 -9 -6 -20 -20 -19 -20 -20 -20 -4 -17 -20 -12 -6 -2 -4 0 -15 -20 -14 -1 -2 -2 2 10 11 16 -8 -2 3 -4 -18 -20 -20 -20 -20 -20 -20 -20 -20 -20 -20 -20 -20 -20 -20 -20 -20 -16 4 -15
-3 4 -16 11 12 -5 -4 5 -20 -14 -20 -20 -20 -20 -20 -20 -20 -13 -11 -15 -20 -20 -20 -14 -9 -19 -20 -20 -20 -4 -2 -15 -20 -20 -20 -20 -20 -20 -20 -20 -20 -20 -20 -20 -20 -20 -20 -20 -20 -20 -20 -20 -20 13
-4 4 1 28 17 -11 -20 -9 -20 -20 -5 -20 -14 -20 -20 -20 -20 0 2 -20 -20 -20 -20 -20 -20 -6 -13 -20 -20 -20 -20 -20 -20 -20 -20 -20 -20 -20 -20 -20 -20 -20 -20 -20 -20 -20 -20 -20 -20 5 5 17 12 -8
-20 -8 5 25 32 8 4 -19 -20 -20 -20 -12 -20 -5 -20 -20 -20 -20 -20 -20 -6 -20 -20 -20 -20 -20 -20 -20 -20 -20 -20 -20 -20 -20 -20 -20 -20 -20 -20 -20 -20 -20 -20 -20 -20 -20 -20 -20 -20 -15 15 16 8 -20
4 7 14 29 29 16 13 -5 -10 -20 -2 -2 -2 3 -20 -20 -20 -20 -20 -13 -16 -20 -20 -20 -20 -20 -20 -20 -20 -20 -20 -20 -20 -20 -20 -20 -20 -20 -20 -20 -3 -8 12 10 -20 -18 -20 7 -16 10 -0 1 11 -3
7 28 34 33 25 7 13 19 6 -12 -5 -12 -1 -20 -10 -20 -17 -20 -20 -20 -20 -20 -20 -20 -20 -20 -20 -20 -20 -20 -20 -20 -20 -20 -20 -20 -20 4 18 16 10 9 7 6 0 -20 -13 -20 -20 0 21 15 5 3
15 24 11 20 34 5 -16 -14 -20 -20 -5 -16 -20 0 -15 -8 -20 -20 -20 -20 -20 -20 -20 -20 -20 -20 -20 -20 -20 -20 -20 -20 -20 -20 1 -10 -13 -20 -0 1 -6 -12 6 -15 24 -11 -20 -20 -17 -10 -4 3 -3 3
30 16 18 17 6 -12 -5 -7 -19 -4 -20 -16 -20 -5 -19 -20 -15 -20 -20 -7 -20 -20 -19 -20 -20 -20 -20 -20 -20 -20 -20 -20 -19 -20 -20 -20 2 -16 -3 -1 -20 -3 1 7 8 3 -14 -13 -0 1 -5 -6 3 7
22 11 10 5 -7 -4 -7 -12 -20 -20 -20 -20 -10 -17 -20 -5 -20 -20 -18 1 -17 -20 -20 -20 -20 -20 -20 -20 -20 -20 -20 -20 -14 -15 -20 -20 -15 4 -1 7 13 3 -16 -6 15 21 17 7 12 6 -0 6 14 11
7 -3 -11 -20 -20 -20 -20 -13 10 15 12 -15 -13 -14 -20 -20 -20 -6 -20 -20 -16 -20 -20 -20 -20 -20 -20 -20 -20 -20 -6 -17 -18 2 -16 -9 -2 -3 1 6 2 2 4 1 -0 2 8 9 8 9 14 7 7 15
-5 -2 -20 -5 -20 -20 -1 3 -19 -19 -20 -20 -20 -20 -20 -20 -10 -18 -20 -20 -20 -20 -20 -20 -20 -20 -20 -20 -16 1 -20 -20 -20 -20 -20 10 -7 -20 -20 -3 -1 -7 -3 -5 0 -0 1 10 -1 3 8 6 8 5
-10 -18 -20 -20 -20 -20 -20 -20 -20 -20 -20 -20 -6 -2 -20 -20 -20 -7 -18 -19 -7 -9 -20 -19 -18 -18 -18 -11 5 -1 -5 -4 -16 -20 -20 -19 -8 -20 -8 3 1 -1 0 -3 -20 -7 1 6 8 6 3 11 4 10
-18 -20 -19 -20 -20 -13 -15 -3 -20 -17 -20 -5 -20 -20 -20 -20 -2 -5 1 -12 -8 -3 1 2 3 -1 0 -2 1 -6 9 -11 -4 -2 -4 -17 2 3 4 2 -3 0 2 0 1 -10 -8 -18 -15 10 -0 -10 -2 2
-20 -20 -20 -13 -10 -17 -1 -20 -20 -20 -20 -20 -20 -12 -20 -18 -1 -2 -8 3 4 -15 -5 -4 -4 -2 -2 -3 0 -2 -4 -17 2 5 -18 5 4 5 3 -8 1 3 2 -6 -1 -3 6 -3 5 9 2 -1 -4 -12
-20 -20 -8 -2 4 -20 -20 -20 -20 -12 -20 -2 1 -20 -7 -20 -20 -3 -3 -3 1 -2 -19 -3 -4 -3 -3 0 -3 3 -0 2 6 6 3 6 3 3 2 -15 1 3 -19 -20 -10 3 5 -3 5 -9 6 -14 -4 -20
-8 -20 -20 -20 -20 -8 -16 -20 -20 -20 -20 -20 -13 -20 -20 -11 -20 -3 0 -0 -1 -4 -4 -4 -4 -3 3 -18 -20 -3 -20 -17 -20 1 -0 0 -19 -17 -8 1 4 -16 -20 -20 -20 6 -11 -3 -5 -2 -2 -0 -17 -20

GFSWCAN_prec_radar_027.txt.gz
Reflectivity
-20 -20 -20 -20 -20 -20 -0 -15 -20 -20 -20 -20 -20 -20 -20 -20 -20 -20 -20 -20 -20 -20 -20 -20 -20 -20 -20 -20 -20 -20 -20 -20 -20 -20 -20 -18 -20 -20 -20 -20 -20 -20 -20 -20 -20 -20 -20 -20 -20 -20 -20 -20 -20 -20
-18 -20 -20 -20 -20 -20 -20 -20 -20 -20 -20 -20 -20 -20 -20 -20 -20 -20 -20 -20 -20 -20 -20 -20 -20 -20 -20 -20 -20 -20 -20 -20 -20 -20 5 -18 -20 -5 -20 -20 -20 -20 -20 -20 -20 -20 -20 -20 -20 -20 -20 -20 -20 -20
7 -20 -20 -20 -20 -20 -20 -20 -20 -20 -20 -20 -10 10 -14 -20 -20 -20 -20 -20 -20 -20 -20 -20 -20 -20 -20 -20 -20 -20 -20 -20 -20 -20 -20 -20 -20 -20 -20 -20 -20 -20 -20 -20 -20 -20 -20 -20 -20 -20 -20 -20 -15 -20
-2 -20 -20 -20 -20 -20 -20 -20 -20 -20 -10 10 11 9 -7 -20 -20 -20 -20 -20 -20 -20 7 -20 -20 -20 -20 -20 -20 -20 -20 -20 -20 -20 -20 6 -20 -20 -20 -20 -20 -19 -20 -20 -20 -20 -20 -20 -20 -20 -20 -20 -20 -20
9 -13 -2 2 -20 -20 -20 -20 -20 -7 10 12 10 10 -0 -20 -20 -20 -20 -20 -20 -20 -18 -20 -20 -20 -20 -20 -20 -20 -20 -20 -20 -20 -9 -20 -20 -20 -20 -20 -20 -5 -6 -8 -1 -20 -20 -20 -20 -19 -18 -18 -20 -20
23 25 17 4 3 -16 -20 -20 -2 9 11 11 10 9 -8 -20 -20 -20 -20 -20 -20 -20 -20 -20 -20 -20 -20 -20 -20 -20 -20 -20 -20 -20 -7 -20 -20 -20 -20 -20 -13 -13 -17 -15 -20 -20 -20 -20 -20 -20 -18 -20 -20 -20
30 27 25 8 11 -7 -15 -20 8 10 12 12 13 4 -20 -20 -20 -20 -20 -20 2 -20 -20 -20 -20 -20 -20 -20 -20 -20 -20 -20 -20 -20 -2 -20 -20 -20 -12 -20 -13 -18 -20 -20 -20 -20 -20 -20 -20 -20 -20 -20 -20 -20
33 31 26 21 15 -7 -14 9 -10 6 9 10 6 -20 -20 -3 -7 -20 -20 -20 -10 -20 -20 -20 -15 -20 -20 -20 -20 -20 -12 -20 -20 -20 -20 -20 -20 3 -7 -20 -20 -20 -20 -20 -20 -20 -19 -9 -19 -20 -20 -20 -20 -20
20 21 33 26 -4 14 -10 -20 -20 -20 8 12 -20 -20 -20 -20 -20 -20 -20 -20 -20 -20 -20 -20 -20 -20 -20 -20 -20 -20 -20 -20 -20 -7 -19 -20 -20 -20 -20 -20 -20 -20 -20 -20 -20 -9 -18 -15 -20 -20 -20 -20 -20 -20
13 17 6 -10 5 18 3 -15 -20 -19 -20 -1 -17 -20 -20 -20 -6 -20 -20 -20 -20 -20 -20 -20 -20 -20 -20 -20 -20 -20 -20 -16 -20 -20 -20 -20 -20 -20 -20 -20 -20 -20 -20 -20 12 -3 -13 -15 -20 -20 -20 -20 -20 -20
-4 -5 -0 5 -12 -14 -9 -14 -9 20 23 -12 -13 -17 -20 -3 -8 -20 -16 -20 -20 -2 -20 -20 -20 -20 -20 -20 -20 -20 -20 -20 -20 -20 -20 -20 -20 -20 -20 -20 -20 -20 -17 -16 13 18 11 -13 -20 -20 -20 -20 -20 -20
-20 -19 -18 -20 -16 5 8 1 4 -5 19 25 24 16 7 1 22 -12 -10 -20 8 -20 -20 -12 -20 -20 -20 -16 -3 -11 -10 -20 -20 -20 -12 -20 -20 -20 -20 -20 -20 -10 13 13 12 -3 -20 -20 -20 -20 -20 -20 -20 -20
-20 -20 -20 -20 -20 -20 -20 -17 -16 5 5 8 25 29 33 31 25 16 12 6 4 6 -4 -5 -16 -20 -20 -19 14 -6 -12 -1 -13 -18 -20 -20 -4 5 -17 -20 -20 -18 -18 -20 -20 -20 -20 -20 -20 -20 -20 -20 -20 -20
-20 -20 -20 -20 -20 -20 -20 -11 -17 -3 1 12 17 16 20 17 6 3 -16 -8 10 17 10 -2 4 -4 8 11 19 18 23 18 12 -6 -19 12 22 15 -7 -20 -17 -17 -20 -20 -20 -20 -20 -20 -20 -20 -20 -20 -20 -20
-20 -20 -20 -20 -20 -20 -20 -20 -20 -20 -20 -19 -5 -20 -13 1 8 -1 11 -12 -12 5 17 25 23 27 13 20 14 13 12 14 11 18 22 33 10 -19 -20 -20 -20 -17 -18 -20 -20 -20 -20 -20 -20 -20 -20 -20 -20 -20
-20 -20 -20 6 -20 -20 -20 -20 -20 -20 -20 -20 -20 -20 -20 -10 -3 5 17 16 19 25 23 20 10 12 14 12 5 2 3 13 20 21 11 2 8 13 19 -14 -20 -20 -20 -20 -20 -20 -20 -20 -20 -20 -20 -20 -20 -20
-20 9 0 -20 -20 -20 -20 -20 -20 -20 -20 -20 -20 -20 6 -20 -19 -4 -20 -18 -10 -8 -19 -20 -20 -16 -6 5 6 4 15 7 -1 1 6 3 -5 -17 -19 -20 -20 -20 -20 -20 -20 -20 -20 -20 -20 -20 -20 -20 -20 -20
-8 -10 7 -8 -20 -20 -20 -20 -20 -20 -20 -20 -20 -20 -19 -19 -10 -9 -16 -20 -20 -20 -20 -20 -20 -20 -20 -19 4 18 -9 -6 5 5 5 2 1 -1 -15 -20 -20 -20 -20 -20 -20 -20 -20 -20 -20 -20 -20 -20 -20 -20
-20 5 4 -3 -7 -15 -20 -20 -20 -20 -20 -20 -20 -17 -20 -15 -17 -2 -1 -20 -20 -20 -20 -20 -20 -20 -20 -20 -20 -1 1 -17 -18 -17 -18 -19 -20 -20 -20 -20 -20 -20 -20 -20 -20 -20 -20 -20 -20 -20 -20 -20 -20 -20
9 5 -10 9 7 -20 -20 -20 -20 -20 -20 -20 -20 -18 -20 -20 -2 -5 -20 -20 -20 -20 -20 -20 -20 -20 -20 -20 -20 -20 -20 -20 -20 -20 -20 -20 -20 -20 -20 -20 -20 -20 -20 -20 -20 -20 -20 -20 -20 -20 -20 -15 -20 -20
4 -10 -10 -20 22 16 -20 -20 -20 -20 -20 -20 -20 -20 -20 1 6 8 -12 -20 -20 -20 -20 -20 -20 -20 -20 -20 -20 -20 -20 -20 -20 -20 -20 -20 -20 -20 -20 -20 -20 -20 -20 -20 -20 -20 -20 4 -20 -3 -20 -20 -20 1
-19 3 -17 3 -6 26 -8 -20 -20 -20 -7 -20 -20 -20 -20 -16 -3 -9 -20 -20 -20 -20 -20 -20 -20 -20 -20 -20 -20 -20 -20 -20 -20 -20 -20 -20 -20 -20 -20 -20 -20 -20 -20 -20 6 7 -7 -3 -11 -20 -20 -20 -20 7
5 4 -20 -8 -9 4 9 -18 -20 -20 -20 -20 -6 -20 -20 -20 -20 -20 -20 -20 -20 -20 -20 -20 -20 -20 -20 -20 -20 -20 -20 -20 -20 -20 -20 -20 -20 -20 -20 -20 -20 -20 -20 -20 -20 -7 -10 -8 -18 -20 -20 -20 -20 -20
15 -19 -20 -16 10 10 7 -17 -20 -1 -0 -17 -7 -20 -6 -20 -20 -20 -20 -20 -20 -20 -20 -20 -20 -20 -20 -20 -20 -20 -20 -20 -20 -20 -20 -20 -20 -20 -20 -20 -20 -20 -20 -19 -11 -16 -8 -0 -6 -6 -2 3 -20 -17
6 -3 -9 7 -13 -20 -20 -4 -20 -20 -10 -20 -20 -20 -20 -20 -20 -20 -20 -20 -20 -20 -20 -20 -20 -20 -20 -20 -20 -20 -20 -20 -20 -20 -20 -20 -20 -20 -20 -20 -20 -18 -20 -20 -20 -6 -20 -20 0 10 -1 -20 -20 -20
-12 3 7 -15 -20 -20 -20 -20 -20 -20 -20 -14 -14 -20 -20 -20 -20 -20 -20 -20 -19 -20 -20 -20 -20 -20 -20 -20 -20 -20 -20 -20 -20 -20 -20 -20 -20 -20 -20 -20 -20 -20 -20 -3 -8 -3 -20 -20 -20 -5 -5 -1 -11 -8
-13 10 -2 -20 -17 -20 -20 -20 -11 -6 -6 -4 -16 -20 -20 -20 -20 -20 -20 -18 -19 -20 -20 -20 -20 -20 -20 -20 -20 -14 -20 -20 -20 -20 -20 5 -20 -20 -20 -13 -20 -15 -20 -15 -20 -20 -18 -18 -20 -20 -20 -8 1 2
-15 -20 -20 -12 8 7 5 -2 -15 -18 -20 -20 -18 -9 -16 -20 -20 -19 -19 -20 -20 -20 -20 -20 -20 -20 -20 -0 -18 -20 -20 -20 -20 -20 -17 -9 -20 -20 -20 -20 -17 -20 -20 -20 -20 -20 -20 -18 -8 -16 -20 -17 1 1
14 13 12 14 7 -11 -20 -20 -20 -20 -20 -20 -20 -20 -20 -20 -18 -9 -20 -20 -20 -20 -20 -20 -20 -20 -20 -20 -20 -20 -20 -20 -20 -20 -20 -20 -20 -20 -20 -20 -20 -20 -20 -20 -20 -20 -14 -9 2 -7 9 12 -2 -7
-20 -20 -20 -20 -20 -20 -20 -20 -20 -20 -20 -20 -20 -20 -20 -8 -20 -20 -20 -20 -20 -20 -6 -20 -20 -20 -20 -20 -20 -20 -20 -20 -20 -20 -20 -20 -13 -20 -20 -20 -20 -20 -20 -13 -20 -20 -20 -20 -20 4 10 -20 0 3
-4 -20 -20 -20 -20 -20 -20 -20 -20 -20 -20 -20 -20 -20 -20 -20 -20 -20 -20 -19 -20 -20 -20 -20 -20 -20 -20 -20 -20 -20 -20 -20 -20 -20 -20 -20 -20 -20 -20 -20 -20 -20 -7 -20 -20 -20 -20 -20 -9 -9 -7 -20 -4 -2
-20 -20 -20 -18 -15 -20 -20 -20 -20 -20 -20 -20 -20 -20 -20 -20 -20 -20 -20 -20 -20 -20 -20 -20 -20 -20 -20 -20 -20 -20 -19 -20 -20 -20 -20 -20 -20 -20 -20 -20 -20 -20 -20 -20 -20 -20 -20 -20 -20 -20 -11 -10 -2 -2
-20 -20 -20 -20 -20 -20 -20 -20 -20 -20 -20 -20 -20 -20 -20 -20 -20 -20 -20 -20 -20 -20 -20 -20 -20 -20 -20 -20 -20 -20 -20 -20 -20 -20 -20 -8 -20 -20 -20 -20 -16 -3 -20 -20 -20 -20 -20 -20 -20 -20 -20 -17 -2 2

GFSWCAN_prec_radar_030.txt.gz
Reflectivity
3 -5 -2 27 8 5 5 -2 -20 -20 -20 -20 -20 -20 -20 -20 -20 -20 -20 -20 -20 -20 -20 -20 -20 -20 -20 -20 -20 -20 -20 -20 -20 -20 -20 -20 -20 -20 -20 -20 -20 -20 -20 -20 -20 -20 -20 -20 -20 -20 -20 -20 -20 -20
11 3 6 29 16 7 -10 -20 -20 -20 -20 -18 8 11 -20 -20 -20 -20 -20 -20 -20 -20 -20 -20 -20 -20 -20 -20 -20 -20 -20 -20 -20 -20 -12 -20 -18 -1 -20 -20 -20 -20 -20 -20 -20 -20 -20 -20 -20 -20 -20 -20 -20 -20
-9 -17 -5 29 -16 -20 -20 -20 -20 -20 -19 10 12 11 3 -20 -20 -20 -20 -20 -20 -20 -20 -20 -20 -20 -20 -20 -20 -20 -20 -20 -20 -20 -20 -20 -20 -20 -20 -20 -20 -20 -20 -20 -20 -20 -20 -20 -20 -20 -20 -20 -20 -20
-20 -20 -20 23 -0 -20 -20 -20 -20 5 6 11 11 11 6 -20 -20 -20 -20 -20 -20 -20 -9 -20 -20 -20 -20 -20 -20 -20 -20 -20 -20 -20 -20 -20 -20 -20 -20 -20 -20 -20 -20 -20 -20 -20 -20 -20 -20 -20 -20 -20 -20 -8
-13 -20 -20 -14 22 -11 -20 -20 5 9 8 11 8 -13 -10 -16 -20 -20 -20 -20 -20 -20 -19 -20 -20 -20 -20 -20 -20 -20 -20 -20 -20 -20 -20 -20 -20 -20 -17 -20 -20 -20 -20 -20 -20 -20 -20 -20 -20 -20 -20 -20 -8 -3
-8 3 -2 -20 -20 12 11 -3 9 10 10 11 8 -20 -20 -20 -20 -20 -20 -20 -20 -20 -20 -20 -20 -20 -20 -20 -20 -20 -20 -20 -20 -20 -20 -20 -20 -20 -20 -20 -20 -20 -20 -20 -20 -20 -20 -20 -20 -20 -20 -11 12 -20
18 -1 2 -11 -20 -20 -15 7 7 10 8 4 4 -12 -7 -20 -20 -20 -20 -19 6 -20 -20 -20 -20 -20 -20 -20 -20 -20 -20 -20 -20 -20 1 -20 -20 -20 1 -20 -19 -20 -20 -20 -20 -20 -20 -20 -20 -20 -19 -11 -20 -20
28 22 16 -20 -20 -20 -19 10 8 10 6 4 -20 -20 3 -20 -20 -20 -20 -7 -4 -20 -20 -20 -20 -20 -20 -20 -13 -20 -18 -20 -20 -20 -20 -20 -20 -3 -20 -20 -20 -20 -20 -20 -20 -20 -20 -20 -20 -15 23 -8 -0 -20
32 26 21 17 8 -20 -5 -18 -16 8 9 -20 -20 -20 -20 -20 -20 -20 -20 -2 -20 -20 -20 -20 -20 -20 -20 -20 -10 -20 -20 -20 -20 -11 -19 -20 -20 -20 -20 -20 -20 -20 -20 -20 -20 -20 -20 -17 19 10 2 10 -19 -20
8 11 11 10 -20 -20 -20 -20 -20 -8 -1 -20 -20 -20 -20 -20 -1 -20 -20 -20 -20 -20 -20 -20 -20 -20 -20 -20 -20 -20 -20 -20 -20 -20 -20 -20 -20 -20 -20 -20 -20 -20 -20 -20 -20 -20 -11 0 19 22 -1 -20 -17 -20
20 16 14 9 -1 -11 -20 5 -15 -20 -18 -20 -20 -20 -20 -20 -20 -20 -20 -20 -20 -20 -20 -20 -18 -20 -20 -20 -20 -20 -20 -20 -14 -20 -20 -20 -20 -20 -20 -20 -20 -20 -20 -14 8 15 23 20 27 -4 -17 -20 -20 -20
1 6 11 1 -1 3 -2 9 11 -1 -20 -20 -20 -20 -20 -20 -20 -20 -20 -20 -18 -20 -20 -20 -20 -20 -19 -20 -20 -15 -20 -15 -20 -20 -19 -20 -20 -20 -20 -20 -20 -20 -14 1 15 26 31 12 -7 -18 -20 -20 -20 -20
-20 -20 -20 -19 -0 2 -10 -15 7 22 27 14 13 6 -7 13 14 30 8 -11 -20 -10 -9 -15 -20 -20 -20 -20 12 21 11 -0 -13 5 -20 -15 10 -2 14 17 16 16 23 19 10 -2 -9 -20 -9 -19 -20 -20 -20 -20
-20 -20 -20 -20 -2 8 -9 5 9 7 8 21 29 20 17 14 -13 -15 -19 -7 13 6 4 -2 -12 -9 -1 10 19 16 15 14 5 -16 -20 13 29 29 5 -20 -14 -19 -20 -20 -20 -20 -20 -20 -20 -20 -20 -20 -20 -20
-20 -20 -20 -20 -20 -20 -20 -19 -11 -9 -20 -20 -4 8 6 -16 -19 4 -8 17 17 26 26 26 21 24 2 4 -8 2 -11 -7 1 9 6 27 10 8 12 13 5 -20 -20 -20 -20 -20 -20 -20 -20 -20 -20 -20 -20 -20
-20 -20 -6 -20 -20 -20 -20 -20 -20 -20 -20 -20 -20 -15 -20 -20 -20 2 12 -17 -2 1 19 22 1 10 3 12 -3 7 9 9 1 -17 2 20 22 25 21 14 -10 -20 -20 -20 -20 -20 -20 -20 -20 -20 -20 -20 -20 -20
-20 -20 -19 -20 -20 -20 -20 -20 -20 -20 -20 -20 -20 -20 -20 -20 -20 2 -5 -6 -3 2 -20 -5 -20 -19 -4 4 -7 -12 6 -2 17 3 -2 -20 -20 -16 -6 -2 10 -3 -19 -20 -20 -20 -20 -20 -20 -20 -20 -20 -20 -20
-20 -19 -0 -20 -20 -20 -20 -20 -20 -20 -20 -20 -20 -18 -20 -20 -14 -5 2 -17 -20 -20 -20 -20 -20 -20 -20 -20 6 11 -12 -7 7 6 8 9 9 7 4 -0 -4 -13 -20 -20 -20 -20 -20 -20 -20 -20 -20 -20 -20 -20
-20 -20 -20 -20 -20 -20 -20 -20 -20 -20 -20 -15 -8 -4 6 -16 -20 -18 -8 -20 -20 -20 -20 -20 -20 -20 -20 -20 -20 -17 -4 -19 -20 -20 -20 -19 -20 -20 -20 -20 -20 -20 -20 -20 -20 -20 -20 -20 -20 -20 -20 -20 -20 -20
-19 -20 -20 -20 -20 -20 -20 -20 -20 -20 -20 -20 -18 -4 -17 -19 -20 1 -8 -20 -20 -20 -20 -20 -20 -20 -20 -20 -20 -20 -20 -20 -20 -20 -20 -20 -20 -20 -20 -20 -20 -20 -20 -20 -20 -20 -20 -20 -20 -20 -20 -20 -20 -20
-20 -20 -20 -20 -20 -20 -20 -20 -20 -20 -8 -20 -20 -20 -20 -9 -20 -20 -20 -20 -20 -20 -20 -20 -20 -20 -20 -20 -20 -20 -20 -20 -20 -20 -20 -20 -20 -20 -20 -20 -20 -20 -20 -20 -20 -20 -20 -20 -20 -20 -20 2 11 -19
-16 -14 -20 -20 -20 -19 -20 -20 -20 -20 -20 -18 -20 -20 -20 -20 -20 -10 -20 -20 -20 -20 -20 -20 -20 -20 -20 -20 -20 -20 -20 -20 -20 -20 -20 -20 -20 -20 -20 -20 -20 -20 -20 -20 -20 -17 -15 -17 -20 -20 -8 -19 -19 -20
-20 -16 -20 -20 -20 -20 -20 -1 -20 -20 -20 -20 -20 -20 -20 -16 -20 -20 -20 -20 -20 -20 -20 -20 -20 -20 -20 -20 -20 -20 -20 -20 -20 -20 -20 -20 -20 -20 -20 -20 -20 -20 -20 -20 -5 -15 -20 -20 -20 -20 -20 -8 10 15
-19 -20 -20 -20 -20 -20 -20 -16 -8 -16 -20 -20 -20 -20 -20 -20 -20 -20 -20 -20 -20 -20 -20 -20 -20 -20 -20 -20 -20 -20 -20 -20 -20 -20 -20 -20 -20 -20 -20 -20 -20 -20 -20 -20 -20 -20 -20 -20 -20 -20 -20 -20 -20 -11
-20 -20 -20 -20 -20 -20 -20 -20 -19 -18 -20 -20 -14 -17 -20 -20 -20 -20 -20 -20 -20 -20 -20 -20 -20 -20 -20 -20 -20 -20 -20 -20 -20 -20 -20 -20 -20 -20 -20 -20 -20 -20 -20 -20 -20 -20 -20 -20 -20 -20 -20 -20 -20 -20
-20 -20 -20 6 -19 -20 -20 -20 -20 -20 -16 -4 -14 -20 -20 -20 -20 -20 -20 -18 -20 -20 -20 -20 -20 -20 -20 -20 -20 -20 -20 -20 -20 -20 -14 -20 -20 -20 -20 -20 -20 -20 -20 -20 -20 -20 -20 -20 -20 -20 -20 -20 -20 -20
-16 -20 -20 -13 -3 -5 -3 -20 -15 -10 -4 -16 -20 -20 -20 -20 -20 -20 -20 -20 -18 -15 -20 -20 -20 -20 -20 -20 -20 -20 -20 -20 -20 -20 -20 -20 -20 -20 -20 -20 -20 -20 -20 -20 -20 -20 -20 -20 -20 -20 -20 -20 -20 -20
-20 -20 -20 -7 10 11 4 -2 8 11 10 2 -19 -10 -10 -17 -20 -18 -17 -17 -16 -20 -20 -20 -20 -20 -20 -20 -20 -20 -20 -20 -20 -20 -20 -20 -20 -20 -20 -20 -20 -20 -20 -20 -20 -20 -20 -20 -20 -20 -20 -20 -20 -12
-19 -20 -7 12 14 10 11 9 11 12 10 2 -20 -20 -20 -20 -19 -20 -20 -20 -20 -20 -20 -20 -20 -20 -20 -20 -20 -20 -20 -20 -20 -20 -20 -20 -20 -20 -20 -20 -20 -20 -20 -20 -20 -20 -20 -20 -20 -20 -2 11 -1 -11
5 2 5 -2 -7 -16 -20 -18 -19 -20 -20 -20 -20 -20 -20 -20 -19 -20 -20 -20 -20 -20 -20 -20 -20 -20 -20 -20 -20 -20 -20 -20 -20 -20 -20 -20 -20 -20 -20 -20 -20 -20 -20 -20 -20 -20 -20 -20 -20 -20 -20 -17 -18 -19
-20 -20 -20 -20 -20 -20 -20 -19 -16 -20 -20 -20 -20 -20 -20 -20 -20 -20 -20 -20 -20 -20 -20 -20 -20 -20 -20 -20 -20 -20 -20 -20 -20 -20 -20 -20 -20 -20 -20 -20 -20 -20 -20 -20 -20 -20 -20 -20 -20 -20 -20 -20 -20 -20
-20 -20 -20 -20 -20 -20 -20 -20 -20 -20 -20 -20 -20 -20 -20 -20 -20 -20 -20 -20 -20 -20 -20 -20 -20 -20 -20 -20 -20 -20 -20 -20 -20 -20 -20 -20 -20 -20 -20 -20 -20 -20 -20 -20 -20 -20 -20 -20 -20 -20 -20 -20 -20 -20
-20 -20 -20 -20 -20 -20 -20 -20 -20 -20 -20 -20 -20 -20 -20 -20 -20 -20 -20 -20 -20 -20 -20 -20 -20 -20 -20 -20 -20 -20 -20 -20 -20 -20 -20 -20 -20 -20 -20 -20 -20 -20 -20 -20 -20 -20 -20 -20 -20 -20 -20 -20 -20 -20

GFSWCAN_prec_radar_036.txt.gz
Reflectivity
-20 6 10 1 9 12 12 0 -20 4 11 10 2 -10 -20 -20 -20 -20 17 -20 -20 -20 -20 -20 -20 -20 -20 -20 -20 -20 -20 -20 -20 -20 -20 -20 -20 -20 -20 -20 -20 -20 -20 -20 -20 -20 -20 -20 -20 -20 -20 -20 -20 -20
20 10 3 6 10 -1 -18 -20 10 18 11 14 11 1 -20 -20 -20 -20 11 -20 -20 -20 -20 -20 -20 -20 -20 -20 -20 -20 -20 -20 -20 -20 -20 -20 -20 -20 -20 -20 -20 -20 -20 -20 -20 -20 -20 -20 -20 -20 -20 -20 -20 -20
-17 6 13 8 9 -19 -20 3 10 8 7 11 7 7 -20 -20 20 23 -17 -20 -20 -20 -20 -20 -20 -20 -20 -20 -20 -20 -20 -20 -20 -20 -20 -20 -20 -20 -20 -20 -20 -20 -20 -20 -20 -20 -20 -20 -20 -20 -20 -20 -20 -20
-17 -19 6 2 -20 -20 -2 19 10 9 -20 1 -19 -20 -20 -20 -19 11 -13 -20 -20 -20 -15 -20 -20 -20 -20 -20 -20 -20 -20 -20 -20 -20 -20 -20 -20 -20 -20 -20 -20 -20 -20 -20 -20 -20 -20 -20 -20 -20 -20 -20 -20 -20
-20 -20 -20 -18 23 -1 13 10 -1 -1 -9 11 -20 -20 -20 -20 -20 -20 -20 -20 -20 -20 -20 -20 -20 -20 -20 -20 -20 -20 -20 -20 -20 -20 -20 -20 -20 -20 -20 -12 -20 -20 -20 -20 -20 -20 -20 -20 -20 -20 -20 -20 -20 -20
4 10 0 8 15 4 13 6 -5 -20 7 19 -8 -16 -5 -20 -20 -20 -20 -20 -20 -20 -20 -20 -20 -20 -20 -20 -20 -20 -20 -20 -20 -20 -20 -20 -20 -20 -20 -20 -20 -20 -20 -20 -20 -20 -20 -20 -20 -20 -20 -20 -20 -20
15 26 12 24 19 10 9 3 -3 -20 -20 -20 -20 -20 -20 -20 -20 -20 -20 -15 10 -20 -20 -20 -20 -20 -20 -20 -20 -20 -20 -20 -20 -20 -14 -1 -20 -20 -20 -20 -20 -20 -20 -20 -20 -20 -20 -20 -20 -20 -20 -20 -20 -11
17 28 11 30 21 11 8 7 6 -18 -20 -16 -20 -20 -20 -20 -20 -20 -20 -20 -20 -20 -20 -20 -20 -20 -20 -14 -9 -20 -20 -20 -20 -17 -5 -13 7 8 -20 -20 -20 -20 -20 -20 -20 -20 -20 -20 -20 -20 -20 -20 -20 -1
29 30 33 8 -2 -1 9 7 4 -20 -20 -20 -20 -20 -20 -20 -20 -20 -20 -20 -20 -20 -20 -20 -20 -20 -20 -20 -0 -20 -20 -20 -20 -20 5 -20 -20 -20 -20 -20 -20 -20 -20 -20 -20 -20 -20 -20 -20 -20 -16 15 9 29
23 18 27 30 28 19 10 0 -20 -20 -20 -20 -20 -20 -20 -20 -20 -20 -20 -20 -20 -20 -20 -17 -18 -19 -20 3 6 -20 -7 -20 -20 -20 -20 -19 -20 -20 -20 -20 -20 -20 -20 -20 -20 -20 -20 -20 -4 7 -2 25 37 31
23 6 -14 9 28 31 20 -11 -20 1 2 8 10 -3 -14 -16 -20 -20 -20 -20 -20 -20 -16 -1 -20 -20 -20 -20 -3 -16 -20 -20 -20 -20 -14 -20 -20 -20 -20 -20 -20 -20 -20 -20 -20 -13 0 12 22 24 22 14 -5 -2
11 13 6 -16 -20 -19 -10 -9 7 15 12 1 5 3 1 -4 -15 -20 -20 -12 -20 -20 -14 -20 -20 -20 -7 -20 -20 -5 -20 -20 -20 -20 -20 -17 -20 -20 -13 -16 -5 -12 -14 -5 -8 -6 -5 -10 -8 -18 -14 -2 5 6
26 29 19 14 12 4 14 7 -17 -20 -20 -20 -20 -20 -20 -20 -20 -20 -20 -20 -20 -20 -20 -20 -20 -20 -20 -20 -20 -20 -20 -15 -13 -18 -20 -19 -19 18 15 13 -19 -20 -20 -20 -20 -20 -20 -20 -6 -4 1 2 1 -5
21 27 21 17 19 13 -11 14 -11 -12 -14 -20 -20 -20 -20 -20 -20 -20 -20 -20 -20 -20 -7 -1 -20 -20 -20 -19 9 21 -3 1 -3 -19 -20 7 24 -4 -20 -20 -13 -12 -18 -19 -20 -20 -17 -1 -2 -9 -20 -20 -20 -20
16 18 10 11 19 26 19 20 20 -3 -7 -13 -20 -20 -20 -20 -20 -20 -15 -15 -11 -20 -19 -17 -2 -8 5 -1 -14 5 -20 -20 -20 -20 -20 -15 17 -20 -6 -18 -20 -20 -20 -20 -20 -20 -20 -20 -20 -20 -20 -20 -20 -20
-13 -10 -20 -20 -10 -0 6 10 12 22 23 21 -10 -20 -20 -20 -18 3 6 10 13 8 -2 9 -20 -20 -20 -20 -20 -20 -20 -20 -20 -20 -20 -19 -16 18 16 -0 -6 -17 -20 -20 -20 -20 -20 -20 -20 -20 -20 -20 -20 -20
-20 -20 -20 -20 -20 -20 -20 -20 -13 -20 -14 -8 -7 -20 -20 -20 -20 -20 -18 -18 -9 -12 -20 -20 -20 -20 -20 -20 -20 -20 -20 -20 -20 -20 -20 -15 -16 -19 -3 -18 -20 -20 -20 -20 -20 -20 -20 -20 -20 -20 -20 -20 -20 -20
-17 -20 -20 -20 -20 -20 -20 -20 -20 -20 -20 -20 -20 -20 -20 -20 -20 -9 -10 -8 -20 -20 -20 -20 -20 -20 -20 -20 -20 -20 -20 -20 -20 -20 -20 -20 -19 -20 -20 -20 -20 -20 -20 -20 -20 -20 -20 -20 -20 -20 -20 -20 -20 -20
-20 -20 -20 -20 -20 -20 -20 -20 -20 -20 -20 -9 -11 3 3 -9 -20 -4 -3 -20 -20 -20 -20 -20 -20 -20 -20 -20 -20 -20 -20 -20 -20 -20 -20 -20 -20 -20 -20 -20 -20 -20 -20 -20 -20 -20 -20 -20 -16 -20 -20 -20 -20 -20
-20 -20 -20 -20 -20 -20 -20 -20 -20 -20 -20 -10 -19 -14 -5 -8 0 6 -0 -20 -20 -20 -20 -20 -20 -20 -20 -20 -20 -20 -20 -20 -20 -20 -20 -20 -20 -20 -20 -20 -20 -20 -20 -20 -20 -20 -20 -20 -20 -20 -20 -20 -20 -20
-20 -20 -20 -20 -20 -20 -20 -20 -20 -20 -8 -17 -20 -20 0 4 2 13 0 -20 -20 -20 -20 -20 -20 -20 -20 -20 -20 -20 -20 -20 -20 -20 -20 -20 -20 -20 -20 -20 -20 -20 -20 -20 -20 -20 -20 -20 -20 -20 -20 -20 -20 -20
-20 -20 -20 -20 -20 -20 -20 -20 -20 -18 -12 -20 -20 -20 -20 -20 6 -2 -20 -20 -20 -20 -20 -20 -20 -20 -20 -20 -20 -20 -20 -20 -20 -20 -20 -20 -20 -20 -20 -20 -20 -20 -20 -20 -20 -20 -20 -20 -20 -20 -20 -20 -20 -20
-16 -20 -20 -20 -20 -20 -20 -20 -20 -20 -18 -20 -20 -20 -20 -20 -20 -20 -20 -20 -20 -20 -20 -20 -20 -20 -20 -20 -20 -20 -20 -20 -20 -20 -20 -20 -20 -20 -20 -20 -20 -20 -20 -20 -20 -20 -20 -20 -20 -20 -20 -20 -20 -20
-20 -20 -20 -20 -20 -20 -20 -20 -20 -20 -20 -20 -20 -20 -20 -20 -20 -20 -20 -17 -20 -20 -20 -20 -20 -20 -20 -20 -20 -20 -20 -20 -20 -20 -20 -20 -20 -20 -20 -20 -20 -20 -20 -20 -20 -20 -20 -20 -20 -20 -20 -20 -20 -20
-20 -20 -20 -20 -20 -20 -20 -20 -20 -20 -20 -20 -20 -20 -20 -20 -20 -20 -20 -19 -19 -19 -17 -15 -20 -20 -20 -20 -20 -20 -20 -20 -20 -20 -20 -20 -20 -20 -20 -20 -20 -20 -20 -20 -20 -20 -20 -20 -20 -20 -20 -20 -20 -20
-20 -20 -20 -20 -20 -20 -20 -20 -20 -20 -20 -20 -19 -19 -20 -20 -20 -20 -20 -18 -18 -19 -18 -18 -19 -20 -20 -20 -20 -20 -20 -20 -20 -20 -20 -20 -20 -20 -20 -20 -20 -20 -20 -20 -20 -20 -20 -20 -20 -20 -20 -20 -20 -20
-20 -20 -20 -20 -20 -20 -20 -20 -20 -20 -20 -19 -19 -13 3 2 -20 -20 -20 -20 -19 -7 -3 -13 -20 -20 -20 -20 -20 -20 -20 -20 -20 -20 -20 -20 -20 -20 -20 -20 -20 -20 -20 -20 -20 -20 -20 -20 -20 -20 -20 -20 -20 -20
-20 -20 -20 -20 -20 -20 -20 -20 -20 -14 -19 -17 -5 -1 10 7 -5 -11 3 3 -17 -17 -19 -20 -20 -20 -20 -20 -20 -20 -20 -20 -20 -20 -20 -20 -20 -20 -20 -20 -20 -20 -20 -20 -20 -20 -20 -20 -20 -20 -20 -20 -20 -20
-20 -20 -20 -20 -20 -20 -19 -20 -19 3 9 8 4 7 7 2 -3 -20 -20 -20 -20 -20 -20 -20 -20 -20 -20 -20 -20 -20 -20 -20 -20 -20 -20 -20 -20 -20 -20 -20 -20 -20 -20 -20 -20 -20 -20 -20 -20 -20 -20 -20 -20 -20
-20 -20 -20 -20 -20 -20 -20 -20 -20 -20 -20 -19 -14 -20 -20 -20 -20 -20 -20 -20 -20 -20 -20 -20 -20 -20 -20 -20 -20 -20 -20 -20 -20 -20 -20 -20 -20 -20 -20 -20 -20 -20 -20 -20 -20 -20 -20 -20 -20 -20 -20 -20 -20 -20
-20 -20 -20 -20 -20 -20 -20 -20 -20 -19 -20 -20 -20 -20 -20 -20 -20 -20 -20 -20 -20 -20 -20 -20 -20 -20 -20 -20 -20 -20 -20 -20 -20 -20 -20 -20 -20 -20 -20 -20 -20 -20 -20 -20 -20 -20 -20 -20 -20 -20 -20 -20 -20 -20
-20 -20 -20 -20 -20 -20 -20 -20 -20 -20 -20 -20 -20 -20 -20 -20 -20 -20 -20 -20 -20 -20 -20 -20 -20 -20 -20 -20 -20 -20 -20 -20 -20 -20 -20 -20 -20 -20 -20 -20 -20 -20 -20 -20 -20 -20 -20 -20 -20 -20 -20 -20 -20 -20
-20 -20 -20 -20 -20 -20 -20 -20 -20 -20 -20 -20 -20 -20 -20 -20 -20 -20 -20 -20 -20 -20 -20 -20 -20 -20 -20 -20 -20 -20 -20 -20 -20 -20 -20 -20 -20 -20 -20 -20 -20 -20 -20 -20 -20 -20 -20 -20 -20 -20 -20 -20 -20 -20